Regional Weather Roundup
Issued by NWS Green Bay, WI

Home | Current Version | Previous Version | Text Only | Print | Product List | Glossary On
Versions: 1 2 3 4 5 6 7 8 9 10 11 12 13 14 15 16 17 18 19 20 21 22 23 24 25 26 27 28 29 30 31 32 33 34 35 36 37 38 39 40 41 42 43 44 45 46 47 48 49 50
076
ASUS43 KGRB 010411
RWRGRB

NORTH-CENTRAL AND NORTHEAST WISCONSIN REGIONAL WEATHER ROUNDUP
NATIONAL WEATHER SERVICE GREEN BAY WI
1100 PM CDT THU JUN 30 2016

WIZ005-009-010>012-018-019-010500-
NORTH CENTRAL WISCONSIN

CITY           SKY/WX    TMP DP  RH WIND       PRES   REMARKS
IRONWOOD       CLOUDY    52  50  93 N3        30.06R
MANITOWISH WTR MOCLDY    53  53 100 N7        30.04S
ARBOR VITAE    CLOUDY    57  54  89 N5        30.03F
EAGLE RIVER    CLOUDY    54  52  95 N5        30.02S
LAND O LAKES   MOCLDY    54  52  94 N7        30.04R
RHINELANDER    CLEAR     54  51  90 N5        30.02S
PHILLIPS       PTCLDY    54  52  94 N6        30.04R
ANTIGO         CLOUDY    55  54  94 N14G20    29.99S
TOMAHAWK       MOCLDY    54  51  89 N5        30.03R
MERRILL        PTCLDY    56  55  94 N7        30.02R
$$

WIZ013-073-010500-
NORTHEAST WISCONSIN

CITY           SKY/WX    TMP DP  RH WIND       PRES   REMARKS
IRON MOUNTAIN  CLOUDY    57  52  83 N9        29.98R
MARINETTE      CLOUDY    60  59  96 N5        29.93S
OCONTO         CLOUDY   N/A N/A N/A CALM      29.92S
$$

WIZ017-030-035>037-045-010500-
CENTRAL WISCONSIN

CITY           SKY/WX    TMP DP  RH WIND       PRES   REMARKS
MEDFORD        CLEAR     55  55 100 N7        30.01S
WAUSAU         PTCLDY    58  56  93 N5        29.97S
MOSINEE        CLEAR     55  55 100 N7        29.99S
MARSHFIELD     CLEAR     59  54  83 N10       29.99R
WISC RAPIDS    PTCLDY    55  53  93 CALM      29.98R FOG
STEVENS POINT  CLOUDY    57  56  97 N7        29.97S
WAUPACA        CLOUDY    63  63 100 CALM      29.95R
SHAWANO        MOCLDY    62  59  90 NW5       29.95S
CLINTONVILLE   PTCLDY    63  61  94 CALM      29.94S
WAUTOMA        MOCLDY    60  57  89 NW7       29.96S
$$

WIZ038-039-048-051-010500-
FOX VALLEY

CITY           SKY/WX    TMP DP  RH WIND       PRES   REMARKS
NWS GREEN BAY  CLOUDY    62  61  96 NW3       29.93S
APPLETON       LGT RAIN  61  61 100 CALM      29.92F
OSHKOSH        CLOUDY    61  57  87 NW3       29.92F
FOND DU LAC    CLOUDY    64  60  87 N8        29.93R
$$

WIZ022-050-052-010500-
EAST CENTRAL WISCONSIN

CITY           SKY/WX    TMP DP  RH WIND       PRES   REMARKS
EPHRAIM        CLOUDY    60  59  97 N6        29.91S
STURGEON BAY   MOCLDY    61  60  97 N7        29.92F
MANITOWOC      LGT RAIN  62  60  93 W3        29.92F
SHEBOYGAN      CLOUDY    63  60  90 NW5       29.91S
$$

LMZ563-521-522-541>543-010500-
LAKESHORE

STATION/POSITION TIME  TEMP    WIND        PRES    VSBY  WAVE
                       AIR SEA DIR/SP/G                  HT/PER
                 (UTC) (F)     (DEG/KT/KT) (MB)    (MI)  (FT/S)
SHEBOYGAN LKSHOR 0400   63     320/  4/  4 1012.9S
KEWAUNEE LKSHORE 0300   62                   N/A
ALGOMA MARINA    0312             CALM       N/A
NORTHPORT PIER   0300   62      50/  3/  4 1013.2S
N MID LAKE BUOY  0350   59 60  350/  6/  6 1012.6S         1/ 5
SISTER BAY LKSHO 0305   61     360/  9/ 10   N/A
CHAMBERS ISLAND  0340   62     340/  7/ 11 1013.2F
MENOMINEE LKSHOR 0300   62                   N/A
$$




USA.gov is the U.S. government's official web portal to all federal, state and local government web resources and services.